Tracking 19247 objects as of 22-Sep-2018
HD Live streaming from Space Station
objects crossing your sky now

FENGYUN 1C DEB

Track FENGYUN 1C DEB now!
10-day predictions


NORAD ID: 31497
Int'l Code: 1999-025BWL
Perigee: 653.9 km
Apogee: 905.1 km
Inclination: 98.4 °
Period: 100.3 minutes
Semi major axis: 7150 km
RCS: 0.0104 m2 (small)
Launch date: May 10, 1999
Source: People's Republic of China (PRC)
Launch site: Taiyaun Space Center, China (TSC)

Note: This is SATELLITE DEBRIS
aabbcc
Your satellite tracking list
Your tracking list is empty




NASA's NSSDC Master Catalog

Two Line Element Set (TLE):
1 31497U 99025BWL 18259.31082382 +.00000022 +00000-0 +20719-4 0  9998
2 31497 098.3909 290.8960 0175676 343.3639 073.0060 14.35819990595847
Source of the keplerian elements: AFSPC